Tracking 19242 objects as of 16-Aug-2018
HD Live streaming from Space Station
objects crossing your sky now

FENGYUN 1C DEB

Track FENGYUN 1C DEB now!
10-day predictions


NORAD ID: 31539
Int'l Code: 1999-025BYE
Perigee: 558.9 km
Apogee: 582.7 km
Inclination: 99.1 °
Period: 95.9 minutes
Semi major axis: 6941 km
RCS: 0.0051 m2 (small)
Launch date: May 10, 1999
Source: People's Republic of China (PRC)
Launch site: Taiyaun Space Center, China (TSC)

Note: This is SATELLITE DEBRIS
aabbcc
Your satellite tracking list
Your tracking list is empty




NASA's NSSDC Master Catalog

Two Line Element Set (TLE):
1 31539U 99025BYE 18227.93616415 +.00010871 +00000-0 +85281-3 0  9995
2 31539 099.0622 227.0210 0017132 330.1991 029.8252 15.01062160594463
Source of the keplerian elements: AFSPC